contact:dominique.lefevre@mio.osupytheas.fr, maurice.libes@osupytheas.fr, didier.mallarino@osupytheas.fr
Project:EMSO http://www.emso-fr.org/EMSO-France
Depth: 2436.0 m
Title:EMSO Ligure Ouest : Data MII capteur CSTAR
DateTime,Latitude,Longitude,Instrument_Serial,Reference_Counts,Signal_Counts,Corrected_Signal_raw_counts,Calculated_Beam_c_inverse_meters,Internal_thermistor_counts
DateTime,Latitude,Longitude,Instrument_Serial,Reference_Counts,Signal_Counts,Corrected_Signal_raw_counts,Calculated_Beam_c_inverse_meters,Internal_thermistor_counts
2023-03-20T00:02:22,42.805,6.029,CST-1368DR,4348,4758,11624,01.181,551
2023-03-20T00:05:24,42.805,6.029,CST-1368DR,4348,4761,11631,01.178,551
2023-03-20T00:08:25,42.805,6.029,CST-1368DR,4348,4760,11627,01.180,551
2023-03-20T00:11:27,42.805,6.029,CST-1368DR,4348,4755,11615,01.184,551
2023-03-20T00:14:28,42.805,6.029,CST-1368DR,4348,4759,11624,01.181,551
2023-03-20T00:17:30,42.805,6.029,CST-1368DR,4348,4757,11621,01.182,551
2023-03-20T00:20:31,42.805,6.029,CST-1368DR,4348,4760,11628,01.180,551
2023-03-20T00:23:33,42.805,6.029,CST-1368DR,4348,4758,11622,01.182,551
2023-03-20T00:26:35,42.805,6.029,CST-1368DR,4348,4769,11649,01.172,551
2023-03-20T00:29:36,42.805,6.029,CST-1368DR,4348,4759,11624,01.181,551
2023-03-20T00:32:38,42.805,6.029,CST-1368DR,4348,4757,11621,01.182,551
2023-03-20T00:35:39,42.805,6.029,CST-1368DR,4348,4761,11630,01.179,551
2023-03-20T00:38:41,42.805,6.029,CST-1368DR,4348,4763,11636,01.177,551
2023-03-20T00:41:42,42.805,6.029,CST-1368DR,4348,4752,11609,01.186,551
2023-03-20T00:44:44,42.805,6.029,CST-1368DR,4348,4759,11626,01.180,551
2023-03-20T00:47:46,42.805,6.029,CST-1368DR,4348,4756,11619,01.183,551
2023-03-20T00:50:47,42.805,6.029,CST-1368DR,4348,4755,11616,01.184,551
2023-03-20T00:53:49,42.805,6.029,CST-1368DR,4348,4760,11628,01.180,551
2023-03-20T00:56:50,42.805,6.029,CST-1368DR,4348,4755,11615,01.184,551
2023-03-20T00:59:52,42.805,6.029,CST-1368DR,4348,4763,11634,01.177,551
2023-03-20T01:02:54,42.805,6.029,CST-1368DR,4348,4760,11627,01.180,551
2023-03-20T01:05:55,42.805,6.029,CST-1368DR,4348,4763,11634,01.177,551
2023-03-20T01:08:57,42.805,6.029,CST-1368DR,4348,4759,11625,01.181,551
2023-03-20T01:11:58,42.805,6.029,CST-1368DR,4348,4779,11675,01.163,551
2023-03-20T01:15:00,42.805,6.029,CST-1368DR,4348,4756,11619,01.183,551
2023-03-20T01:18:01,42.805,6.029,CST-1368DR,4348,4761,11631,01.178,551
2023-03-20T01:21:03,42.805,6.029,CST-1368DR,4348,4753,11610,01.186,551
2023-03-20T01:24:05,42.805,6.029,CST-1368DR,4348,4761,11630,01.179,551
2023-03-20T01:27:06,42.805,6.029,CST-1368DR,4348,4760,11627,01.180,551
2023-03-20T01:30:08,42.805,6.029,CST-1368DR,4348,4756,11618,01.183,551
2023-03-20T01:33:09,42.805,6.029,CST-1368DR,4348,4759,11626,01.180,551
2023-03-20T01:36:11,42.805,6.029,CST-1368DR,4348,4759,11624,01.181,551
2023-03-20T01:39:12,42.805,6.029,CST-1368DR,4348,4759,11626,01.180,551
2023-03-20T01:42:14,42.805,6.029,CST-1368DR,4348,4756,11619,01.183,551
2023-03-20T01:45:16,42.805,6.029,CST-1368DR,4348,4756,11619,01.183,551
2023-03-20T01:48:17,42.805,6.029,CST-1368DR,4348,4757,11621,01.182,551
2023-03-20T01:51:19,42.805,6.029,CST-1368DR,4348,4759,11624,01.181,551
2023-03-20T01:54:20,42.805,6.029,CST-1368DR,4348,4754,11614,01.184,551
2023-03-20T01:57:22,42.805,6.029,CST-1368DR,4348,4758,11622,01.182,551
2023-03-20T02:00:23,42.805,6.029,CST-1368DR,4348,4754,11613,01.185,551
2023-03-20T02:03:25,42.805,6.029,CST-1368DR,4348,4754,11614,01.184,551
2023-03-20T02:06:27,42.805,6.029,CST-1368DR,4348,4758,11623,01.181,551
2023-03-20T02:09:28,42.805,6.029,CST-1368DR,4348,4752,11607,01.187,551
2023-03-20T02:12:30,42.805,6.029,CST-1368DR,4348,4757,11621,01.182,551
2023-03-20T02:15:31,42.805,6.029,CST-1368DR,4348,4759,11624,01.181,551
2023-03-20T02:18:33,42.805,6.029,CST-1368DR,4348,4754,11613,01.185,551
2023-03-20T02:21:35,42.805,6.029,CST-1368DR,4348,4759,11626,01.180,551
2023-03-20T02:24:36,42.805,6.029,CST-1368DR,4348,4757,11620,01.182,551
2023-03-20T02:27:38,42.805,6.029,CST-1368DR,4348,4757,11620,01.182,551
2023-03-20T02:30:39,42.805,6.029,CST-1368DR,4348,4757,11621,01.182,551
2023-03-20T02:33:41,42.805,6.029,CST-1368DR,4348,4756,11619,01.183,551
2023-03-20T02:36:42,42.805,6.029,CST-1368DR,4348,4762,11634,01.177,551
2023-03-20T02:39:44,42.805,6.029,CST-1368DR,4348,4760,11628,01.180,551
2023-03-20T02:42:46,42.805,6.029,CST-1368DR,4348,4759,11626,01.180,551
2023-03-20T02:45:47,42.805,6.029,CST-1368DR,4348,4761,11630,01.179,551
2023-03-20T02:48:49,42.805,6.029,CST-1368DR,4348,4762,11634,01.177,551
2023-03-20T02:51:50,42.805,6.029,CST-1368DR,4348,4753,11610,01.186,551
2023-03-20T02:54:52,42.805,6.029,CST-1368DR,4348,4761,11630,01.179,551
2023-03-20T02:57:53,42.805,6.029,CST-1368DR,4348,4758,11623,01.181,551
2023-03-20T03:00:55,42.805,6.029,CST-1368DR,4348,4758,11622,01.182,551
2023-03-20T03:03:57,42.805,6.029,CST-1368DR,4348,4759,11625,01.181,551
2023-03-20T03:06:58,42.805,6.029,CST-1368DR,4348,4759,11625,01.181,551
2023-03-20T03:10:00,42.805,6.029,CST-1368DR,4348,4759,11625,01.181,551
2023-03-20T03:13:01,42.805,6.029,CST-1368DR,4348,4762,11632,01.178,551
2023-03-20T03:16:03,42.805,6.029,CST-1368DR,4348,4754,11614,01.184,551
2023-03-20T03:19:05,42.805,6.029,CST-1368DR,4348,4759,11626,01.180,551
2023-03-20T03:22:06,42.805,6.029,CST-1368DR,4348,4761,11631,01.178,551
2023-03-20T03:25:08,42.805,6.029,CST-1368DR,4348,4757,11620,01.182,551
2023-03-20T03:28:09,42.805,6.029,CST-1368DR,4348,4760,11629,01.179,551
2023-03-20T03:31:11,42.805,6.029,CST-1368DR,4348,4762,11632,01.178,551
2023-03-20T03:34:12,42.805,6.029,CST-1368DR,4348,4755,11615,01.184,551
2023-03-20T03:37:14,42.805,6.029,CST-1368DR,4348,4761,11630,01.179,551
2023-03-20T03:40:16,42.805,6.029,CST-1368DR,4348,4763,11635,01.177,551
2023-03-20T03:43:17,42.805,6.029,CST-1368DR,4348,4766,11642,01.175,551
2023-03-20T03:46:19,42.805,6.029,CST-1368DR,4348,4765,11639,01.176,551
2023-03-20T03:49:20,42.805,6.029,CST-1368DR,4348,4761,11631,01.178,551
2023-03-20T03:52:22,42.805,6.029,CST-1368DR,4348,4760,11627,01.180,551
2023-03-20T03:55:23,42.805,6.029,CST-1368DR,4348,4764,11637,01.176,551
2023-03-20T03:58:25,42.805,6.029,CST-1368DR,4348,4762,11634,01.177,551
2023-03-20T04:01:27,42.805,6.029,CST-1368DR,4348,4765,11640,01.175,551
2023-03-20T04:04:28,42.805,6.029,CST-1368DR,4348,4765,11640,01.175,551
2023-03-20T04:07:30,42.805,6.029,CST-1368DR,4348,4755,11616,01.184,551
2023-03-20T04:10:31,42.805,6.029,CST-1368DR,4348,4763,11634,01.177,551
2023-03-20T04:13:33,42.805,6.029,CST-1368DR,4348,4763,11635,01.177,551
2023-03-20T04:16:35,42.805,6.029,CST-1368DR,4348,4763,11634,01.177,551
2023-03-20T04:19:36,42.805,6.029,CST-1368DR,4348,4766,11642,01.175,551
2023-03-20T04:22:38,42.805,6.029,CST-1368DR,4348,4762,11634,01.177,551
2023-03-20T04:25:39,42.805,6.029,CST-1368DR,4348,4767,11646,01.173,551
2023-03-20T04:28:41,42.805,6.029,CST-1368DR,4348,4763,11635,01.177,551
2023-03-20T04:31:42,42.805,6.029,CST-1368DR,4348,4753,11610,01.186,551
2023-03-20T04:34:44,42.805,6.029,CST-1368DR,4348,4757,11621,01.182,551
2023-03-20T04:37:46,42.805,6.029,CST-1368DR,4348,4758,11624,01.181,551
2023-03-20T04:40:47,42.805,6.029,CST-1368DR,4348,4761,11631,01.178,551
2023-03-20T04:43:49,42.805,6.029,CST-1368DR,4348,4766,11643,01.174,551
2023-03-20T04:46:50,42.805,6.029,CST-1368DR,4348,4760,11627,01.180,551
2023-03-20T04:49:52,42.805,6.029,CST-1368DR,4348,4763,11635,01.177,551
2023-03-20T04:52:54,42.805,6.029,CST-1368DR,4348,4764,11637,01.176,551
2023-03-20T04:55:55,42.805,6.029,CST-1368DR,4348,4766,11642,01.175,551
2023-03-20T04:58:57,42.805,6.029,CST-1368DR,4348,4763,11636,01.177,551
2023-03-20T05:01:58,42.805,6.029,CST-1368DR,4348,4765,11640,01.175,551
2023-03-20T05:05:00,42.805,6.029,CST-1368DR,4348,4767,11645,01.174,551
2023-03-20T05:08:01,42.805,6.029,CST-1368DR,4348,4765,11641,01.175,551
2023-03-20T05:11:03,42.805,6.029,CST-1368DR,4348,4758,11624,01.181,551
2023-03-20T05:14:05,42.805,6.029,CST-1368DR,4348,4766,11643,01.174,551
2023-03-20T05:17:06,42.805,6.029,CST-1368DR,4348,4769,11651,01.172,551
2023-03-20T05:20:08,42.805,6.029,CST-1368DR,4348,4766,11643,01.174,551
2023-03-20T05:23:09,42.805,6.029,CST-1368DR,4348,4766,11642,01.175,551
2023-03-20T05:26:11,42.805,6.029,CST-1368DR,4348,4763,11634,01.177,551
2023-03-20T05:29:12,42.805,6.029,CST-1368DR,4348,4769,11650,01.172,551
2023-03-20T05:32:14,42.805,6.029,CST-1368DR,4348,4769,11649,01.172,551
2023-03-20T05:35:16,42.805,6.029,CST-1368DR,4348,4771,11655,01.170,551
2023-03-20T05:38:17,42.805,6.029,CST-1368DR,4348,4770,11653,01.171,551
2023-03-20T05:41:19,42.805,6.029,CST-1368DR,4348,4772,11657,01.170,551
2023-03-20T05:44:20,42.805,6.029,CST-1368DR,4348,4767,11644,01.174,551
2023-03-20T05:47:22,42.805,6.029,CST-1368DR,4348,4771,11655,01.170,551
2023-03-20T05:50:24,42.805,6.029,CST-1368DR,4348,4769,11651,01.172,551
2023-03-20T05:53:25,42.805,6.029,CST-1368DR,4348,4771,11655,01.170,551
2023-03-20T05:56:27,42.805,6.029,CST-1368DR,4348,4771,11655,01.170,551
2023-03-20T05:59:28,42.805,6.029,CST-1368DR,4348,4773,11660,01.169,551
2023-03-20T06:02:30,42.805,6.029,CST-1368DR,4348,4772,11657,01.170,551
2023-03-20T06:05:31,42.805,6.029,CST-1368DR,4348,4761,11630,01.179,551
2023-03-20T06:08:33,42.805,6.029,CST-1368DR,4348,4769,11650,01.172,551
2023-03-20T06:11:35,42.805,6.029,CST-1368DR,4348,4773,11660,01.169,551
2023-03-20T06:14:36,42.805,6.029,CST-1368DR,4348,4770,11653,01.171,551
2023-03-20T06:17:38,42.805,6.029,CST-1368DR,4348,4770,11653,01.171,551
2023-03-20T06:20:39,42.805,6.029,CST-1368DR,4348,4774,11662,01.168,551
2023-03-20T06:23:41,42.805,6.029,CST-1368DR,4348,4769,11651,01.172,551
2023-03-20T06:26:42,42.805,6.029,CST-1368DR,4348,4773,11659,01.169,551
2023-03-20T06:29:44,42.805,6.029,CST-1368DR,4348,4768,11647,01.173,551
2023-03-20T06:32:46,42.805,6.029,CST-1368DR,4348,4771,11654,01.171,551
2023-03-20T06:35:47,42.805,6.029,CST-1368DR,4348,4776,11667,01.166,551
2023-03-20T06:38:49,42.805,6.029,CST-1368DR,4348,4778,11672,01.164,551
2023-03-20T06:41:50,42.805,6.029,CST-1368DR,4348,4741,11581,01.196,551
2023-03-20T06:44:52,42.805,6.029,CST-1368DR,4348,4769,11649,01.172,551
2023-03-20T06:47:53,42.805,6.029,CST-1368DR,4348,4774,11662,01.168,551
2023-03-20T06:50:55,42.805,6.029,CST-1368DR,4348,4769,11650,01.172,551
2023-03-20T06:53:57,42.805,6.029,CST-1368DR,4348,4771,11654,01.171,551
2023-03-20T06:56:58,42.805,6.029,CST-1368DR,4348,4772,11658,01.169,551
2023-03-20T07:00:00,42.805,6.029,CST-1368DR,4348,4780,11676,01.163,551
2023-03-20T07:03:01,42.805,6.029,CST-1368DR,4348,4774,11661,01.168,551
2023-03-20T07:06:03,42.805,6.029,CST-1368DR,4348,4771,11654,01.171,551
2023-03-20T07:09:05,42.805,6.029,CST-1368DR,4348,4769,11651,01.172,551
2023-03-20T07:12:06,42.805,6.029,CST-1368DR,4348,4771,11654,01.171,551
2023-03-20T07:15:08,42.805,6.029,CST-1368DR,4348,4772,11658,01.169,551
2023-03-20T07:18:09,42.805,6.029,CST-1368DR,4348,4774,11662,01.168,551
2023-03-20T07:21:11,42.805,6.029,CST-1368DR,4348,4775,11664,01.167,551
2023-03-20T07:24:12,42.805,6.029,CST-1368DR,4348,4773,11659,01.169,551
2023-03-20T07:27:14,42.805,6.029,CST-1368DR,4348,4778,11671,01.165,551
2023-03-20T07:30:16,42.805,6.029,CST-1368DR,4348,4775,11664,01.167,551
2023-03-20T07:33:17,42.805,6.029,CST-1368DR,4348,4769,11650,01.172,551
2023-03-20T07:36:19,42.805,6.029,CST-1368DR,4348,4770,11652,01.171,551
2023-03-20T07:39:20,42.805,6.029,CST-1368DR,4348,4770,11651,01.172,551
2023-03-20T07:42:22,42.805,6.029,CST-1368DR,4348,4769,11649,01.172,551
2023-03-20T07:45:23,42.805,6.029,CST-1368DR,4348,4765,11639,01.176,551
2023-03-20T07:48:25,42.805,6.029,CST-1368DR,4348,4768,11646,01.173,551
2023-03-20T07:51:27,42.805,6.029,CST-1368DR,4348,4763,11634,01.177,551
2023-03-20T07:54:28,42.805,6.029,CST-1368DR,4348,4769,11650,01.172,551
2023-03-20T07:57:30,42.805,6.029,CST-1368DR,4348,4768,11646,01.173,551
2023-03-20T08:00:31,42.805,6.029,CST-1368DR,4348,4779,11675,01.163,551
2023-03-20T08:03:33,42.805,6.029,CST-1368DR,4348,4766,11643,01.174,551
2023-03-20T08:06:35,42.805,6.029,CST-1368DR,4348,4772,11657,01.170,551
2023-03-20T08:09:36,42.805,6.029,CST-1368DR,4348,4771,11654,01.171,551
2023-03-20T08:12:38,42.805,6.029,CST-1368DR,4348,4766,11643,01.174,551
2023-03-20T08:15:39,42.805,6.029,CST-1368DR,4348,4770,11652,01.171,551
2023-03-20T08:18:41,42.805,6.029,CST-1368DR,4348,4774,11662,01.168,551
2023-03-20T08:21:42,42.805,6.029,CST-1368DR,4348,4774,11661,01.168,551
2023-03-20T08:24:44,42.805,6.029,CST-1368DR,4348,4775,11664,01.167,551
2023-03-20T08:27:46,42.805,6.029,CST-1368DR,4348,4774,11662,01.168,551
2023-03-20T08:30:47,42.805,6.029,CST-1368DR,4348,4773,11660,01.169,551
2023-03-20T08:33:49,42.805,6.029,CST-1368DR,4348,4768,11647,01.173,551
2023-03-20T08:36:50,42.805,6.029,CST-1368DR,4348,4772,11657,01.170,551
2023-03-20T08:39:52,42.805,6.029,CST-1368DR,4348,4769,11649,01.172,551
2023-03-20T08:42:53,42.805,6.029,CST-1368DR,4348,4774,11662,01.168,551
2023-03-20T08:45:55,42.805,6.029,CST-1368DR,4348,4767,11644,01.174,551
2023-03-20T08:48:57,42.805,6.029,CST-1368DR,4348,4769,11650,01.172,551
2023-03-20T08:51:58,42.805,6.029,CST-1368DR,4348,4771,11656,01.170,551
2023-03-20T08:55:00,42.805,6.029,CST-1368DR,4348,4773,11660,01.169,551
2023-03-20T08:58:01,42.805,6.029,CST-1368DR,4348,4770,11651,01.172,551
2023-03-20T09:01:03,42.805,6.029,CST-1368DR,4348,4767,11646,01.173,551
2023-03-20T09:04:05,42.805,6.029,CST-1368DR,4348,4772,11657,01.170,551
2023-03-20T09:07:06,42.805,6.029,CST-1368DR,4348,4768,11648,01.173,551
2023-03-20T09:10:08,42.805,6.029,CST-1368DR,4348,4777,11668,01.166,551
2023-03-20T09:13:09,42.805,6.029,CST-1368DR,4348,4771,11654,01.171,551
2023-03-20T09:16:11,42.805,6.029,CST-1368DR,4348,4774,11662,01.168,551
2023-03-20T09:19:12,42.805,6.029,CST-1368DR,4348,4765,11641,01.175,551
2023-03-20T09:22:14,42.805,6.029,CST-1368DR,4348,4769,11649,01.172,551
2023-03-20T09:25:16,42.805,6.029,CST-1368DR,4348,4771,11654,01.171,551
2023-03-20T09:28:17,42.805,6.029,CST-1368DR,4348,4774,11661,01.168,551
2023-03-20T09:31:19,42.805,6.029,CST-1368DR,4348,4774,11661,01.168,551
2023-03-20T09:34:20,42.805,6.029,CST-1368DR,4348,4769,11651,01.172,551
2023-03-20T09:37:22,42.805,6.029,CST-1368DR,4348,4767,11645,01.174,551
2023-03-20T09:40:23,42.805,6.029,CST-1368DR,4348,4776,11667,01.166,551
2023-03-20T09:43:25,42.805,6.029,CST-1368DR,4348,4773,11659,01.169,551
2023-03-20T09:46:27,42.805,6.029,CST-1368DR,4348,4779,11675,01.163,551
2023-03-20T09:49:28,42.805,6.029,CST-1368DR,4348,4778,11671,01.165,551
2023-03-20T09:52:30,42.805,6.029,CST-1368DR,4348,4776,11666,01.166,551
2023-03-20T09:55:31,42.805,6.029,CST-1368DR,4348,4776,11666,01.166,551
2023-03-20T09:58:33,42.805,6.029,CST-1368DR,4348,4768,11648,01.173,551
2023-03-20T10:01:35,42.805,6.029,CST-1368DR,4348,4777,11670,01.165,551
2023-03-20T10:04:36,42.805,6.029,CST-1368DR,4348,4769,11650,01.172,551
2023-03-20T10:07:38,42.805,6.029,CST-1368DR,4348,4761,11629,01.179,551
2023-03-20T10:10:39,42.805,6.029,CST-1368DR,4348,4771,11656,01.170,551
2023-03-20T10:13:41,42.805,6.029,CST-1368DR,4348,4770,11653,01.171,551
2023-03-20T10:16:42,42.805,6.029,CST-1368DR,4348,4769,11651,01.172,551
2023-03-20T10:19:44,42.805,6.029,CST-1368DR,4348,4763,11634,01.177,551
2023-03-20T10:22:46,42.805,6.029,CST-1368DR,4348,4765,11639,01.176,551
2023-03-20T10:25:47,42.805,6.029,CST-1368DR,4348,4776,11667,01.166,551
2023-03-20T10:28:49,42.805,6.029,CST-1368DR,4348,4765,11640,01.175,551
2023-03-20T10:31:50,42.805,6.029,CST-1368DR,4348,4770,11651,01.172,551
2023-03-20T10:34:52,42.805,6.029,CST-1368DR,4348,4771,11655,01.170,551
2023-03-20T10:37:53,42.805,6.029,CST-1368DR,4348,4769,11651,01.172,552
2023-03-20T10:40:55,42.805,6.029,CST-1368DR,4348,4776,11668,01.166,551
2023-03-20T10:43:57,42.805,6.029,CST-1368DR,4348,4772,11658,01.169,551
2023-03-20T10:46:58,42.805,6.029,CST-1368DR,4348,4771,11654,01.171,551
2023-03-20T10:50:00,42.805,6.029,CST-1368DR,4348,4772,11657,01.170,551
2023-03-20T10:53:01,42.805,6.029,CST-1368DR,4348,4781,11678,01.162,551
2023-03-20T10:56:03,42.805,6.029,CST-1368DR,4348,4767,11644,01.174,551
2023-03-20T10:59:04,42.805,6.029,CST-1368DR,4348,4775,11664,01.167,551
2023-03-20T11:02:06,42.805,6.029,CST-1368DR,4348,4766,11642,01.175,551
2023-03-20T11:05:08,42.805,6.029,CST-1368DR,4347,4770,11655,01.170,551
2023-03-20T11:08:09,42.805,6.029,CST-1368DR,4348,4779,11674,01.164,551
2023-03-20T11:11:11,42.805,6.029,CST-1368DR,4348,4780,11677,01.163,551
2023-03-20T11:14:12,42.805,6.029,CST-1368DR,4348,4762,11634,01.177,551
2023-03-20T11:17:14,42.805,6.029,CST-1368DR,4348,4776,11667,01.166,551
2023-03-20T11:20:16,42.805,6.029,CST-1368DR,4348,4773,11660,01.169,551
2023-03-20T11:23:17,42.805,6.029,CST-1368DR,4348,4775,11664,01.167,551
2023-03-20T11:26:19,42.805,6.029,CST-1368DR,4348,4773,11660,01.169,551
2023-03-20T11:29:20,42.805,6.029,CST-1368DR,4348,4780,11676,01.163,551
2023-03-20T11:32:22,42.805,6.029,CST-1368DR,4348,4774,11663,01.167,551
2023-03-20T11:35:23,42.805,6.029,CST-1368DR,4347,4775,11666,01.166,551
2023-03-20T11:38:25,42.805,6.029,CST-1368DR,4348,4780,11677,01.163,551
2023-03-20T11:41:27,42.805,6.029,CST-1368DR,4348,4781,11678,01.162,551
2023-03-20T11:44:28,42.805,6.029,CST-1368DR,4347,4772,11660,01.169,551
2023-03-20T11:47:30,42.805,6.029,CST-1368DR,4348,4782,11682,01.161,551
2023-03-20T11:50:31,42.805,6.029,CST-1368DR,4348,4779,11673,01.164,551
2023-03-20T11:53:33,42.805,6.029,CST-1368DR,4347,4775,11668,01.166,551
2023-03-20T11:56:34,42.805,6.029,CST-1368DR,4347,4766,11644,01.174,551
2023-03-20T11:59:36,42.805,6.029,CST-1368DR,4348,4780,11676,01.163,551
2023-03-20T12:02:38,42.805,6.029,CST-1368DR,4348,4777,11668,01.166,551
2023-03-20T12:05:39,42.805,6.029,CST-1368DR,4347,4773,11663,01.167,551
2023-03-20T12:08:41,42.805,6.029,CST-1368DR,4347,4776,11670,01.165,551
2023-03-20T12:11:42,42.805,6.029,CST-1368DR,4347,4769,11653,01.171,551
2023-03-20T12:14:44,42.805,6.029,CST-1368DR,4347,4767,11648,01.173,551
2023-03-20T12:17:46,42.805,6.029,CST-1368DR,4347,4768,11649,01.172,551
2023-03-20T12:20:47,42.805,6.029,CST-1368DR,4348,4775,11664,01.167,551
2023-03-20T12:23:49,42.805,6.029,CST-1368DR,4348,4777,11670,01.165,551
2023-03-20T12:26:50,42.805,6.029,CST-1368DR,4347,4766,11646,01.173,551
2023-03-20T12:29:52,42.805,6.029,CST-1368DR,4347,4771,11656,01.170,551
2023-03-20T12:32:53,42.805,6.029,CST-1368DR,4347,4771,11656,01.170,551
2023-03-20T12:35:55,42.805,6.029,CST-1368DR,4348,4776,11668,01.166,551
2023-03-20T12:38:57,42.805,6.029,CST-1368DR,4348,4775,11665,01.167,551
2023-03-20T12:41:58,42.805,6.029,CST-1368DR,4348,4779,11673,01.164,551
2023-03-20T12:45:00,42.805,6.029,CST-1368DR,4348,4773,11660,01.169,551
2023-03-20T12:48:01,42.805,6.029,CST-1368DR,4348,4769,11649,01.172,551
2023-03-20T12:51:03,42.805,6.029,CST-1368DR,4347,4767,11647,01.173,551
2023-03-20T12:54:04,42.805,6.029,CST-1368DR,4347,4773,11662,01.168,551
2023-03-20T12:57:06,42.805,6.029,CST-1368DR,4348,4771,11654,01.171,551
2023-03-20T13:00:08,42.805,6.029,CST-1368DR,4347,4771,11658,01.169,551
2023-03-20T13:03:09,42.805,6.029,CST-1368DR,4348,4777,11670,01.165,551
2023-03-20T13:06:11,42.805,6.029,CST-1368DR,4348,4780,11676,01.163,551
2023-03-20T13:09:12,42.805,6.029,CST-1368DR,4347,4768,11650,01.172,551
2023-03-20T13:12:14,42.805,6.029,CST-1368DR,4347,4776,11669,01.165,551
2023-03-20T13:15:16,42.805,6.029,CST-1368DR,4348,4773,11660,01.169,551
2023-03-20T13:18:17,42.805,6.029,CST-1368DR,4348,4777,11668,01.166,551
2023-03-20T13:21:19,42.805,6.029,CST-1368DR,4347,4770,11655,01.170,551
2023-03-20T13:24:20,42.805,6.029,CST-1368DR,4347,4775,11666,01.166,551
2023-03-20T13:27:22,42.805,6.029,CST-1368DR,4347,4773,11662,01.168,551
2023-03-20T13:30:23,42.805,6.029,CST-1368DR,4347,4767,11648,01.173,551
2023-03-20T13:33:25,42.805,6.029,CST-1368DR,4347,4770,11654,01.171,551
2023-03-20T13:36:27,42.805,6.029,CST-1368DR,4347,4766,11644,01.174,551
2023-03-20T13:39:28,42.805,6.029,CST-1368DR,4347,4769,11652,01.171,551
2023-03-20T13:42:30,42.805,6.029,CST-1368DR,4347,4769,11653,01.171,551
2023-03-20T13:45:31,42.805,6.029,CST-1368DR,4347,4773,11661,01.168,551
2023-03-20T13:48:33,42.805,6.029,CST-1368DR,4347,4768,11649,01.172,551
2023-03-20T13:51:34,42.805,6.029,CST-1368DR,4347,4769,11651,01.172,551
2023-03-20T13:54:36,42.805,6.029,CST-1368DR,4347,4764,11640,01.175,551
2023-03-20T13:57:38,42.805,6.029,CST-1368DR,4347,4771,11658,01.169,551
2023-03-20T14:00:39,42.805,6.029,CST-1368DR,4347,4774,11665,01.167,551
2023-03-20T14:03:41,42.805,6.029,CST-1368DR,4347,4769,11653,01.171,551
2023-03-20T14:06:42,42.805,6.029,CST-1368DR,4347,4767,11648,01.173,551
2023-03-20T14:09:44,42.805,6.029,CST-1368DR,4347,4773,11663,01.167,551
2023-03-20T14:12:46,42.805,6.029,CST-1368DR,4347,4766,11646,01.173,551
2023-03-20T14:15:47,42.805,6.029,CST-1368DR,4347,4765,11643,01.174,551
2023-03-20T14:18:49,42.805,6.029,CST-1368DR,4347,4765,11642,01.175,551
2023-03-20T14:21:50,42.805,6.029,CST-1368DR,4347,4767,11647,01.173,551
2023-03-20T14:24:52,42.805,6.029,CST-1368DR,4347,4765,11643,01.174,551
2023-03-20T14:27:53,42.805,6.029,CST-1368DR,4347,4769,11653,01.171,551
2023-03-20T14:30:55,42.805,6.029,CST-1368DR,4347,4770,11654,01.171,551
2023-03-20T14:33:57,42.805,6.029,CST-1368DR,4347,4769,11653,01.171,551
2023-03-20T14:36:58,42.805,6.029,CST-1368DR,4347,4763,11637,01.176,551
2023-03-20T14:40:00,42.805,6.029,CST-1368DR,4347,4764,11641,01.175,551
2023-03-20T14:43:01,42.805,6.029,CST-1368DR,4347,4766,11645,01.174,551
2023-03-20T14:46:03,42.805,6.029,CST-1368DR,4347,4769,11652,01.171,551
2023-03-20T14:49:04,42.805,6.029,CST-1368DR,4347,4766,11644,01.174,551
2023-03-20T14:52:06,42.805,6.029,CST-1368DR,4347,4767,11648,01.173,551
2023-03-20T14:55:08,42.805,6.029,CST-1368DR,4347,4759,11628,01.180,551
2023-03-20T14:58:09,42.805,6.029,CST-1368DR,4347,4770,11654,01.171,551
2023-03-20T15:01:11,42.805,6.029,CST-1368DR,4347,4763,11639,01.176,551
2023-03-20T15:04:12,42.805,6.029,CST-1368DR,4347,4759,11627,01.180,551
2023-03-20T15:07:14,42.805,6.029,CST-1368DR,4347,4769,11653,01.171,551
2023-03-20T15:10:15,42.805,6.029,CST-1368DR,4347,4766,11645,01.174,551
2023-03-20T15:13:17,42.805,6.029,CST-1368DR,4347,4765,11643,01.174,551
2023-03-20T15:16:19,42.805,6.029,CST-1368DR,4347,4768,11650,01.172,551
2023-03-20T15:19:20,42.805,6.029,CST-1368DR,4347,4763,11637,01.176,551
2023-03-20T15:22:22,42.805,6.029,CST-1368DR,4347,4762,11636,01.177,551
2023-03-20T15:25:23,42.805,6.029,CST-1368DR,4347,4761,11633,01.178,551
2023-03-20T15:28:25,42.805,6.029,CST-1368DR,4347,4761,11632,01.178,551
2023-03-20T15:31:27,42.805,6.029,CST-1368DR,4347,4767,11647,01.173,551
2023-03-20T15:34:28,42.805,6.029,CST-1368DR,4347,4763,11637,01.176,551
2023-03-20T15:37:30,42.805,6.029,CST-1368DR,4347,4764,11641,01.175,551
2023-03-20T15:40:31,42.805,6.029,CST-1368DR,4347,4758,11625,01.181,551
2023-03-20T15:43:33,42.805,6.029,CST-1368DR,4347,4759,11628,01.180,551
2023-03-20T15:46:34,42.805,6.029,CST-1368DR,4347,4766,11645,01.174,551
2023-03-20T15:49:36,42.805,6.029,CST-1368DR,4347,4757,11624,01.181,551
2023-03-20T15:52:38,42.805,6.029,CST-1368DR,4347,4759,11628,01.180,551
2023-03-20T15:55:39,42.805,6.029,CST-1368DR,4347,4762,11636,01.177,551
2023-03-20T15:58:41,42.805,6.029,CST-1368DR,4347,4759,11628,01.180,551
2023-03-20T16:01:42,42.805,6.029,CST-1368DR,4347,4763,11638,01.176,551
2023-03-20T16:04:44,42.805,6.029,CST-1368DR,4347,4759,11627,01.180,551
2023-03-20T16:07:45,42.805,6.029,CST-1368DR,4347,4766,11646,01.173,551
2023-03-20T16:10:47,42.805,6.029,CST-1368DR,4347,4760,11631,01.178,551
2023-03-20T16:13:49,42.805,6.029,CST-1368DR,4347,4765,11643,01.174,551
2023-03-20T16:16:50,42.805,6.029,CST-1368DR,4347,4768,11649,01.172,551
2023-03-20T16:19:52,42.805,6.029,CST-1368DR,4347,4770,11654,01.171,551
2023-03-20T16:22:53,42.805,6.029,CST-1368DR,4347,4767,11648,01.173,551
2023-03-20T16:25:55,42.805,6.029,CST-1368DR,4347,4766,11645,01.174,551
2023-03-20T16:28:57,42.805,6.029,CST-1368DR,4347,4767,11647,01.173,551
2023-03-20T16:31:58,42.805,6.029,CST-1368DR,4347,4766,11645,01.174,551
2023-03-20T16:35:00,42.805,6.029,CST-1368DR,4347,4769,11653,01.171,551
2023-03-20T16:38:01,42.805,6.029,CST-1368DR,4347,4769,11653,01.171,551